Regional Weather Roundup
Issued by NWS

Home | Current Version | Previous Version | Text Only | Print | Product List | Glossary On
Versions: 1 2 3 4 5 6 7 8 9 10 11 12 13 14 15 16 17 18 19 20 21 22 23 24 25 26 27 28 29 30 31 32 33 34 35 36 37 38 39 40 41 42 43 44 45 46 47 48 49 50
000
ASUS46 KLOX 221812
RWRCA

SOUTHERN CALIFORNIA WEATHER ROUNDUP
NATIONAL WEATHER SERVICE OXNARD CALIFORNIA
1100 AM PDT TUE JUL 22 2014

NOTE: "FAIR" INDICATES FEW OR NO CLOUDS BELOW 12,000 FEET WITH NO
SIGNIFICANT WEATHER AND/OR OBSTRUCTIONS TO VISIBILITY.

  -  STATIONS PRECEEDED BY AN ASTERISK (*) ARE NOT NWS OR FAA
     STATIONS AND ARE NOT SUBJECT TO NWS AND FAA QUALITY CONTROL.

CAZ041-042-087-221900-
LA AND ORANGE COUNTY COASTAL AREAS


CITY           SKY/WX    TMP DP  RH WIND       PRES   REMARKS
L.A. DOWNTOWN  SUNNY     81  61  50 CALM      30.04S
L.A. AIRPORT   MOSUNNY   75  63  66 W12       30.06S
LONG BEACH     SUNNY     76  63  64 VRB6      30.06S HAZE

CITY           SKY/WX    TMP DP  RH WIND       PRES   REMARKS
AVALON           N/A     72 N/A N/A MISG        N/A
FULLERTON      SUNNY     82  60  47 CALM      30.04S
*GETTY CENTER    N/A     77  63  61 S8          N/A
HAWTHORNE      SUNNY     80  61  52 CALM      30.05F
*LEO CARRILLO    N/A     73  61  66 W13         N/A
*LOS ALAMITOS  SUNNY     77  64  64 SW9       30.05S
*REDONDO BEACH   N/A     75  65  72 W6        30.06R
SANTA ANA      MOSUNNY   79  62  56 SW9       30.05S
STA MONICA APT SUNNY     75  62  64 SW9       30.07R
TORRANCE       SUNNY     81  66  61 NW12      30.06S
*UCLA            N/A    N/A N/A N/A SW8       30.04R

$$

CAZ547-548-048-221900-
LA COUNTY VALLEYS AND INLAND EMPIRE


CITY           SKY/WX    TMP DP  RH WIND       PRES   REMARKS
BURBANK        SUNNY     80  56  43 CALM      30.06S
VAN NUYS       SUNNY     83  56  39 S5        30.05F

CITY           SKY/WX    TMP DP  RH WIND       PRES   REMARKS
CORONA AIRPORT CLEAR     82  61  49 MISG      30.05F
CHINO          MOSUNNY   82  61  48 NW3       30.06F
MARCH AFB      SUNNY     83  55  38 NW6       30.08S
*NORTHRIDGE      N/A     82  52  34 E3          N/A
ONTARIO        MOSUNNY   80  58  46 CALM      30.05F
*PASADENA        N/A     82  64  54 E5          N/A
RIVERSIDE      SUNNY     81  58  45 NW6       30.05F
SAN BERNARDINO SUNNY    N/A N/A N/A SW5       30.07S
*SAN GABRIEL     N/A     81  58  44 CALM      30.01F
*SAN RAFAEL HI   N/A     84  66  54 E3          N/A
*SAUGUS          N/A     87  53  30 SW3         N/A
*WHITEMAN AP   SUNNY     81  57  44 CALM      30.10S
*WHITTIER HILL   N/A     82  66  57 W6          N/A
*WOODLAND HILL   N/A     84  52  32 NW3         N/A

$$

CAZ054-055-221900-
LA AND SAN BERNARDINO COUNTY MOUNTAINS


CITY           SKY/WX    TMP DP  RH WIND       PRES   REMARKS
*BIG BEAR AIRP CLEAR     79   5   6 SW9G16    30.37S
*CHILAO          N/A     80  38  22 S6          N/A
MT WILSON NWS    N/A     79  43  27 W3          N/A
SANDBERG       SUNNY     81  45  28 S13       30.23S
*WARM SPRINGS    N/A     81  48  31 CALM        N/A

$$

CAZ028-029-059-060-099-221900-
ANTELOPE VALLEY AND SURROUNDING AREAS


CITY           SKY/WX    TMP DP  RH WIND       PRES   REMARKS
LANCASTER      SUNNY     89  40  17 SW14G21   30.08F
PALMDALE       SUNNY     89  38  16 W13       30.10S
*POPPY PARK      N/A     89  46  22 SW16        N/A

CITY           SKY/WX    TMP DP  RH WIND       PRES   REMARKS
29 PALMS       MOSUNNY   92  40  16 CALM      30.11F
BARSTOW/DAGGET SUNNY     91  44  19 W10       30.06F
BISHOP         SUNNY     88  40  18 SE10G17   30.12F
CHINA LAKE     MOSUNNY   90  49  24 SW6       30.06F
EDWARDS AFB    MOSUNNY   88  47  23 VRB7      30.07S
MOJAVE         FAIR      86  48  26 SE5       30.11S
NEEDLES        SUNNY    102  33   9 VRB3      29.97F HX  96
VICTORVILLE    SUNNY     86  34  15 W3        30.12F

$$

CAZ039-040-221900-
VENTURA AND SANTA BARBARA COUNTY COAST


CITY           SKY/WX    TMP DP  RH WIND       PRES   REMARKS
CAMARILLO      SUNNY     75  61  61 SW7       30.06S
NWS OXNARD       N/A     74  61  64 W3        30.06S
OXNARD AIRPORT SUNNY     72  61  68 W10       30.07R
*POINT MUGU    MOSUNNY   71  58  63 W10       30.08R
SBA APT/GOLETA SUNNY     73  62  68 SW5       30.06R
*SANTA BARBARA   N/A     76  62  60 CALM      30.13F
*VENTURA         N/A     73  62  69 SW6       30.08S

$$

CAZ044-045-221900-
VENTURA COUNTY VALLEYS


CITY           SKY/WX    TMP DP  RH WIND       PRES   REMARKS
*SIMI VALLEY     N/A     79  63  57 SW10      30.01S
*OJAI            N/A     85  63  46 CALM      29.98F
*FILLMORE        N/A     83  64  52 CALM      29.95S

$$

CAZ053-221900-
VENTURA COUNTY MOUNTAINS


CITY           SKY/WX    TMP DP  RH WIND       PRES   REMARKS
*LOCKWOOD VLY    N/A     79  39  24 MISG        N/A
*ROSE VALLEY     N/A     84  46  26 MISG        N/A

$$

CAZ034-035-036-221900-
CENTRAL COAST AND SANTA YNEZ VALLEY


CITY           SKY/WX    TMP DP  RH WIND       PRES   REMARKS
SAN LUIS OBISP SUNNY     74  56  53 NW9       30.09F
SANTA MARIA    SUNNY     74  55  51 W8        30.10F

CITY           SKY/WX    TMP DP  RH WIND       PRES   REMARKS
*CAL POLY SLO    N/A     72  59  64 NW7         N/A
*CAMBRIA         N/A     69  60  73 E6        30.00S
*LOMPOC          N/A     75  55  50 W13G18    30.10S
*PISMO BEACH     N/A     69  61  77 W10       30.11R

$$

CAZ037-038-051-221900-
SAN LUIS OBISPO COUNTY INTERIOR AND CUYAMA VALLEY


CITY           SKY/WX    TMP DP  RH WIND       PRES   REMARKS
*CUYAMA          N/A     80  56  42 W10       29.96F
PASO ROBLES    SUNNY     74  55  51 CALM      30.08F

$$

CAZ032-033-061-221900-
SOUTHERN DESERTS


CITY           SKY/WX    TMP DP  RH WIND       PRES   REMARKS
BLYTHE         SUNNY    103  40  11 E7        29.93F HX  98
IMPERIAL       SUNNY    100  49  17 N9        29.89F HX  97
PALM SPRINGS   SUNNY    101  40  12 W3        29.94F HX  96
THERMAL        SUNNY    103  43  13 VRB3      29.87F HX  98

$$

ELSEWHERE ACROSS THE WESTERN UNITED STATES AND MEXICO


CITY           SKY/WX    TMP DP  RH WIND       PRES   REMARKS
DENVER, CO     MOSUNNY   86  48  26 E7        30.34F
GRAND CANYON,  MOSUNNY   86  32  14 VRB5      30.40F
HONOLULU, HI   MOSUNNY   82  73  74 CALM      30.01R
KAHULUI, MAUI  MOSUNNY   81  73  78 CALM      30.01R
LAKE TAHOE, CA MOSUNNY   72  49  44 N9        30.29S
LAS VEGAS, NV  SUNNY     97  29   9 NE5       30.02F HX  91
MAMMOTH LAKES, FAIR      75  37  25 E10       30.34F
MEXICO CITY, M MOSUNNY   72  46  40 NE8       30.39S
PHOENIX, AZ    PTSUNNY  100  47  16 VRB3      29.94F HX  96
PORTLAND, OR   LGT RAIN  63  59  87 VRB3      30.07R
RENO, NV       PTSUNNY   79  50  36 N5        30.20F
SALT LAKE CITY PTSUNNY   89  33  13 VRB6      30.21F
SAN DIEGO, CA  MOSUNNY   73  62  68 W13       30.07S
SAN FRANCISCO, PTSUNNY   72  58  61 W7        30.09S
SAN JOSE, CA   CLOUDY    72  57  59 N5        30.08S
SEATTLE, WA    CLOUDY    61  52  72 SW7       30.08R
TIJUANA, MEX   MOSUNNY   75  59  57 NW8       30.08S

$$

STATION/POSITION TIME  TEMP    WIND        PRES    VSBY  WAVE
                       AIR SEA DIR/SP/G                  HT/PER
                 (UTC) (F)     (DEG/KT/KT) (MB)    (MI)  (FT/S)
POINT ARGUELLO B NOT AVBL
WEST SANTA BARBA 1800   65 66  320/ 16/ 17 1018.2R         4/12
POINT CONCEPTION NOT AVBL
EAST SANTA BARBA 1800   67 67  270/ 12/ 16 1018.1
SANTA MONICA BAY 1800   68 70  250/  8/ 10 1018.0R         2/ 5



USA.gov is the U.S. government's official web portal to all federal, state and local government web resources and services.